TIME,DELAY(SENSOR),PRES,OXYGEN,RAWTEMP,T(OPTODE),TCPHASE,FLUOR,BETA(BETA700),BETA(BETA412),BETA(BETA440),CDOM,C(CSC),ED(ED412.40),ED(ED444.00),ED(ED489.70),ED(ED554.30),LU(LU411.80),LU(LU443.40),LU(LU489.60),LU(LU554.10),COMP,TILTX,TILTY,CHECK
1335671556,5808,878.4500122070312000,43.7416610717773440,663.3920288085938000,4.5162367820739750,54.4812202453613300,53,100,85,81,83,15286,2147757933,2147425453,2148005897,2147875721,2147642441,2147069888,2148267017,2147202267,688,4,13,40318
1335675152,5809,962.4899902343750000,47.0869789123535160,670.8634033203125000,4.2696719169616700,54.0863800048828100,54,99,90,80,84,15287,2147758793,2147422345,2148006619,2147871872,2147645019,2147064018,2148266313,2147201371,3350,4,13,58504
1335678752,5812,985.1900024414062000,47.4688796997070300,671.9182128906250000,4.2348098754882810,54.0486106872558600,53,100,90,79,83,15256,2147760073,2147420160,2148007030,2147872868,2147645010,2147063588,2148267392,2147202395,415,4,13,25806
1335682352,5807,1001.9299926757812000,46.4572486877441400,671.0186767578125000,4.2645401954650880,54.1759986877441400,53,101,85,79,83,15271,2147759542,2147418285,2148004086,2147878564,2147643117,2147066523,2148265426,2147198802,237,4,14,42150
1335685952,5808,989.6900024414062000,46.4459304809570300,671.6480712890625000,4.2437381744384770,54.1878318786621100,53,99,91,79,83,15270,2147758244,2147417261,2148004196,2147876589,2147643218,2147061184,2148268068,2147199689,696,4,13,35616
1335689552,5807,999.3900146484375000,46.5443687438964840,672.0573730468750000,4.2302107810974120,54.1803283691406250,51,98,89,79,83,15271,2147758445,2147421513,2148008438,2147872658,2147643556,2147067090,2148263104,2147201243,469,4,13,20442
1335693152,5811,1003.0399780273438000,46.7805786132812500,672.9531860351562000,4.2005901336669920,54.1567802429199200,52,97,89,78,83,15267,2147759113,2147422665,2148007158,2147875392,2147643337,2147061796,2148261010,2147203593,326,5,13,41399
1335696752,5806,1005.3800048828125000,45.9705085754394500,671.8114013671875000,4.2383418083190920,54.2551383972168000,53,96,88,79,83,15269,2147761764,2147418084,2148006144,2147873910,2147643556,2147065865,2148262784,2147200091,3469,4,13,56467
1335700352,5809,1005.5700073242188000,46.0339508056640600,672.3781127929688000,4.2196102142333980,54.2548789978027340,52,100,89,81,83,15266,2147756672,2147420178,2148006253,2147875602,2147642587,2147069257,2148263488,2147200237,366,4,13,55258
1335703952,5808,1007.4600219726562000,46.7348518371582000,672.8579101562500000,4.2037429809570310,54.1615409851074200,52,99,87,80,83,15267,2147758491,2147418697,2148005760,2147876790,2147644214,2147062180,2148261403,2147199972,161,4,13,1532
1335707552,5809,1008.8200073242188000,46.7106285095214840,673.2197265625000000,4.1917800903320310,54.1689109802246100,52,98,92,80,84,15264,2147758528,2147420982,2148007926,2147874578,2147643017,2147061677,2148264950,2147201654,738,4,13,27516
1335711152,5809,1000.0000000000000000,46.4982604980468750,673.3519897460938000,4.1874051094055180,54.2013092041015600,52,101,92,80,84,15264,2147761417,2147416859,2148009536,2147877056,2147643209,2147062592,2148268635,2147200018,2945,4,14,32695
1335714752,5808,1000.3800048828125000,46.8376007080078100,673.7564697265625000,4.1740250587463380,54.1567306518554700,53,101,88,80,83,15264,2147763748,2147418176,2148008795,2147878006,2147644397,2147067227,2148262966,2147199003,3282,4,13,14261
1335718352,5810,1008.2500000000000000,47.1217002868652340,673.9838867187500000,4.1665039062500000,54.1239585876464840,53,98,89,79,84,15265,2147758153,2147419885,2148005696,2147872777,2147642422,2147065755,2148264649,2147201664,3402,4,14,62048
1335721952,5811,1006.0200195312500000,46.0971908569335940,673.6511230468750000,4.1775112152099610,54.2641410827636700,52,98,86,81,83,15265,2147758500,2147423698,2148008694,2147874788,2147640841,2147062619,2148265984,2147198546,3526,4,13,54783
1335725552,5806,1009.8099975585938000,47.1050109863281250,674.6237792968750000,4.1453337669372560,54.1292190551757800,53,98,91,78,84,15263,2147756278,2147419364,2148008438,2147874066,2147644982,2147063058,2148258057,2147202066,3337,4,13,45403
1335729152,5808,1010.3200073242188000,47.2665786743164060,674.4348144531250000,4.1515870094299320,54.1076507568359400,52,98,89,78,84,15262,2147759341,2147421988,2148008795,2147876333,2147641554,2147063652,2148263524,2147200987,3400,4,13,61356
1335732752,5808,998.9299926757812000,46.3275909423828100,674.0128784179688000,4.1655449867248535,54.2335205078125000,52,101,90,80,83,15262,2147761252,2147420059,2148007835,2147873828,2147642752,2147064859,2148265526,2147200740,192,4,13,4034
1335736352,5811,1013.3400268554688000,46.2841987609863300,673.3494873046875000,4.1874871253967285,54.2309608459472660,53,99,90,78,83,15262,2147758729,2147421723,2148004041,2147875584,2147642788,2147070528,2148265764,2147203209,451,4,13,39689
1335739952,5810,1016.0000000000000000,46.0357208251953100,672.6309814453125000,4.2112460136413570,54.2616310119628900,52,98,91,79,84,15260,2147761974,2147421056,2148005659,2147874596,2147643739,2147063808,2148264960,2147199716,3505,4,13,53
1335743552,5807,1008.2700195312500000,45.9930496215820300,672.6118774414062000,4.2118802070617680,54.2648696899414060,53,101,92,79,84,15262,2147755648,2147422509,2148007131,2147876315,2147645677,2147061933,2148263734,2147202048,352,4,13,58772
1335747152,5809,1005.7199707031250000,46.8171882629394500,674.6455078125000000,4.1446170806884770,54.1755409240722660,53,100,89,79,83,15253,2147757622,2147421037,2148008064,2147874368,2147642825,2147067328,2148267501,2147198747,289,4,13,62142
1335750752,5810,1009.2000122070312000,47.2588996887207000,675.5076904296875000,4.1160850524902340,54.1189308166503900,52,114,89,79,84,15261,2147758573,2147418093,2148004964,2147877549,2147641408,2147070198,2148267090,2147197632,341,4,13,8381
1335754352,5808,1013.4500122070312000,46.9651298522949200,674.6859741210938000,4.1432762145996090,54.1528701782226560,52,141,88,78,83,15261,2147758784,2147420854,2148008045,2147875922,2147643940,2147059126,2148253860,2147198418,3544,4,13,54987
1335757952,5810,1006.3099975585938000,46.5415611267089840,674.6942749023438000,4.1430001258850100,54.2091712951660160,53,100,86,79,83,15259,2147759753,2147422281,2148010496,2147876114,2147644032,2147060717,2148264676,2147198500,439,4,13,13072
1335761552,5809,1008.7899780273438000,46.0079307556152340,675.4406738281250000,4.1183009147644040,54.2952384948730500,53,98,87,80,83,15243,2147759990,2147422720,2148005641,2147875666,2147643565,2147062134,2148266880,2147200310,277,4,13,8448
1335765152,5805,1010.4000244140625000,46.5517387390136700,675.6190795898438000,4.1123957633972170,54.2221717834472660,53,102,91,79,83,15256,2147761920,2147420013,2148009133,2147875017,2147643702,2147061714,2148265307,2147205467,311,4,13,13617
1335768752,5807,1012.7399902343750000,47.0374794006347660,675.5073242187500000,4.1160960197448730,54.1514892578125000,52,99,89,79,84,15251,2147757878,2147420772,2148007104,2147873627,2147642459,2147064996,2148265088,2147203675,524,4,13,47498
1335772352,5810,1014.4600219726562000,46.8594703674316400,674.1110839843750000,4.1622939109802250,54.1578102111816400,53,99,89,78,84,15253,2147757650,2147423149,2148008292,2147873024,2147640164,2147066212,2148264804,2147201545,218,4,13,19422
1335775952,5806,1011.8400268554688000,46.5257797241210940,674.7484130859375000,4.1412119865417480,54.2182083129882800,53,100,89,81,83,15206,2147759926,2147421467,2148010093,2147876297,2147644992,2147063488,2148258486,2147199122,558,4,13,24205
1335779552,5808,1014.3800048828125000,46.7589607238769500,674.1633300781250000,4.1605701446533200,54.1788787841796900,52,98,87,79,84,15223,2147759707,2147422034,2148009334,2147874733,2147644059,2147065782,2148262747,2147203867,28,4,13,34747
1335783152,5806,1019.1900024414062000,45.8452911376953100,673.8015747070312000,4.1725330352783200,54.3015899658203100,52,101,89,80,83,15223,2147759533,2147419712,2148007186,2147876699,2147643081,2147063817,2148261211,2147199771,88,5,13,42928
1335786752,5809,1017.6300048828125000,45.8654289245605500,673.0452880859375000,4.1975460052490230,54.2869110107421900,52,100,84,80,85,15225,2147761874,2147420425,2148010304,2147871670,2147641197,2147065078,2148261366,2147201965,241,4,13,16733
1335790352,5811,1021.5300292968750000,46.1707000732421900,673.3413085937500000,4.1877589225769040,54.2485504150390600,53,101,87,79,84,15224,2147761142,2147420827,2148006784,2147875885,2147644699,2147065956,2148265024,2147203858,3543,4,13,46788
1335793952,5810,1010.7800292968750000,46.6506004333496100,674.4848022460938000,4.1499328613281250,54.1925010681152340,53,99,86,79,84,15218,2147758710,2147421979,2148009517,2147872685,2147645101,2147068059,2148264813,2147201170,430,4,13,64115
1335797552,5810,1010.7500000000000000,46.2504806518554700,674.6605224609375000,4.1441211700439450,54.2540817260742200,53,99,88,79,84,15224,2147758244,2147418203,2148008850,2147876169,2147644352,2147063917,2148264777,2147197897,3582,4,13,24462
1335801152,5807,1016.1199951171875000,45.9283218383789060,674.6229858398438000,4.1453590393066410,54.3008689880371100,53,97,87,79,83,15215,2147758518,2147422052,2148007652,2147874240,2147641280,2147062710,2148264841,2147196516,3577,4,13,51719
1335804752,5808,1017.0100097656250000,46.6484603881835940,674.6113281250000000,4.1457500457763670,54.1952095031738300,53,98,86,79,82,15221,2147757677,2147422738,2148010404,2147875218,2147643520,2147061513,2148265645,2147200283,3186,4,13,62690
1335808352,5807,1014.5999755859375000,47.0800209045410160,675.2454223632812000,4.1247649192810060,54.1399307250976560,53,99,87,80,83,15225,2147759442,2147423945,2148009380,2147877101,2147644324,2147066212,2148267017,2147200603,3441,4,13,43897
1335811952,5811,1013.6799926757812000,46.4206390380859400,675.2083740234375000,4.1259899139404300,54.2363395690918000,53,101,92,78,83,15227,2147758802,2147419154,2148007872,2147875035,2147644480,2147070180,2148264804,2147204096,3208,4,13,49703
1335815552,5810,1014.9099731445312000,47.6100311279296900,675.6240234375000000,4.1122341156005860,54.0730094909668000,52,101,86,79,83,15225,2147757174,2147422793,2148007808,2147876443,2147643428,2147061942,2148266349,2147204004,3362,4,13,25359
1335815756,5805,1015.1699829101562000,47.6234817504882800,675.5128784179688000,4.1159110069274900,54.0733985900878900,53,98,90,78,84,15271,2147758957,2147419629,2148008795,2147874459,2147645924,2147062308,2148261833,2147200658,3124,4,13,59434
